This is the latest recevied weather packets stored in our database for station/object NE8U. If no packets are shown the sender has not sent any weather packets the latest 10 day(s).
| Time | Temp. | Humidity | Pressure | Rain* | Wind** | Luminosity | Snow |
|---|---|---|---|---|---|---|---|
| 1777827466 | 27.78° C | 32% | 1015.7 hPa | 0 mm | - | 337 W/m² | - |
| 1777827164 | 26.67° C | 32% | 1015.5 hPa | 0 mm | - | 327 W/m² | - |
| 1777826859 | 26.67° C | 32% | 1015.5 hPa | 0 mm | - | 373 W/m² | - |
| 1777826557 | 26.67° C | 32% | 1015.5 hPa | 0 mm | - | 357 W/m² | - |
| 1777826253 | 26.67° C | 32% | 1015.5 hPa | 0 mm | - | 314 W/m² | - |
| 1777825951 | 26.67° C | 32% | 1015.9 hPa | 0 mm | - | 311 W/m² | - |
| 1777825647 | 26.67° C | 32% | 1015.7 hPa | 0 mm | - | 285 W/m² | - |
| 1777825346 | 26.67° C | 33% | 1015.4 hPa | 0 mm | - | 280 W/m² | - |
| 1777825042 | 26.67° C | 33% | 1015.7 hPa | 0 mm | - | 281 W/m² | - |
| 1777824738 | 26.67° C | 33% | 1015.6 hPa | 0 mm | - | 326 W/m² | - |
| 1777824435 | 26.67° C | 33% | 1015.6 hPa | 0 mm | - | 402 W/m² | - |
| 1777824131 | 26.67° C | 33% | 1015.4 hPa | 0 mm | - | 363 W/m² | - |
| 1777823827 | 26.11° C | 33% | 1015.7 hPa | 0 mm | - | 350 W/m² | - |
| 1777823525 | 25.56° C | 34% | 1015.4 hPa | 0 mm | - | 268 W/m² | - |
| 1777823222 | 25.56° C | 34% | 1015.8 hPa | 0 mm | - | 255 W/m² | - |
| 1777822920 | 25.56° C | 34% | 1015.7 hPa | 0 mm | - | 215 W/m² | - |
| 1777822617 | 25.56° C | 35% | 1015.5 hPa | 0 mm | - | 227 W/m² | - |
| 1777822315 | 25° C | 35% | 1015.3 hPa | 0 mm | - | 239 W/m² | - |
| 1777822012 | 25° C | 35% | 1015.5 hPa | 0 mm | - | 227 W/m² | - |
| 1777821710 | 25° C | 35% | 1015.6 hPa | 0 mm | - | 287 W/m² | - |
| 1777821407 | 25° C | 36% | 1015.4 hPa | 0 mm | - | 252 W/m² | - |
| 1777821104 | 24.44° C | 36% | 1015.6 hPa | 0 mm | - | 238 W/m² | - |
| 1777820801 | 24.44° C | 36% | 1015.5 hPa | 0 mm | - | 197 W/m² | - |
| 1777820497 | 23.89° C | 36% | 1015.7 hPa | 0 mm | - | 161 W/m² | - |
| 1777820194 | 23.89° C | 37% | 1015.8 hPa | 0 mm | - | 140 W/m² | - |
* Rain latest hour (hover to see other rain measurements)
** Current wind speed in m/s (hover to see current wind gust speed)